[Iaude] MPEC X24: 2023 XE [a=2.27,e=0.56,i=2.9,H=26.4]

mpec at marsden.cfa.harvard.edu mpec at marsden.cfa.harvard.edu
Mon Dec 4 06:54:21 EST 2023


M.P.E.C. 2023-X24                              Issued 2023 December 4, 11:52 UT

     The Minor Planet Electronic Circulars contain information on unusual
         minor planets, routine data on comets and natural satellites,
         and occasional editorial announcements.  They are published
    on behalf of Division F of the International Astronomical Union by the
          Minor Planet Center, Smithsonian Astrophysical Observatory,
                          Cambridge, MA 02138, U.S.A.
			  
             Prepared using the Tamkin Foundation Computer Network

                              MPC at CFA.HARVARD.EDU
            URL https://www.minorplanetcenter.net/    ISSN 1523-6714

                                    2023 XE                                     


Observations:
     K23X00E*1C2023 12 03.24289803 43 05.412+29 03 15.66               VEX024G96
     K23X00E 1C2023 12 03.24851103 43 15.431+29 03 05.76         19.26GVEX024G96
     K23X00E 1C2023 12 03.25413303 43 25.554+29 02 55.72         19.38GVEX024G96
     K23X00E 1C2023 12 03.25975703 43 35.695+29 02 45.46               VEX024G96
     K23X00E KC2023 12 03.33125103 45 43.927+29 00 18.07         19.84GVEX024I52
     K23X00E KC2023 12 03.33176603 45 44.824+29 00 16.96         19.71GVEX024I52
     K23X00E KB2023 12 03.75734 03 59 14.52 +28 42 20.5                ZEX024106
     K23X00E KB2023 12 03.76161 03 59 22.15 +28 42 11.4                ZEX024106
     K23X00E KB2023 12 03.76613 03 59 30.21 +28 42 01.8                ZEX024106
     K23X00E KB2023 12 03.77081 03 59 38.58 +28 41 51.4                ZEX024106
     K23X00E KB2023 12 03.81919204 01 04.79 +28 39 58.2          20.0 GWEX024130
     K23X00E KB2023 12 03.82011304 01 05.741+28 39 41.22         19.0 GXEX024K74
     K23X00E KB2023 12 03.82561904 01 15.449+28 39 28.12         18.9 GXEX024K74
     K23X00E KB2023 12 03.83126504 01 25.380+28 39 14.33         19.4 GXEX024K74
     K23X00E KB2023 12 03.83669704 01 35.48 +28 39 17.2          19.8 GWEX024130
     K23X00E KB2023 12 03.85052 04 01 59.97 +28 38 45.5          19.1 GXEX024G15
     K23X00E KB2023 12 03.85745 04 02 12.10 +28 38 28.1          19.0 GXEX024G15
     K23X00E KC2023 12 04.15242404 11 03.29 +28 24 29.0          19.3 G EX024858
     K23X00E KC2023 12 04.16501304 11 24.59 +28 23 54.2          19.4 G EX024858
     K23X00E KC2023 12 04.17975204 11 49.37 +28 23 13.6          19.8 G EX024858
     K23X00E KC2023 12 04.19383204 12 08.19 +28 22 23.7          20.0 GVEX024H21
     K23X00E KC2023 12 04.19576204 12 11.42 +28 22 17.6          19.9 GVEX024H21
     K23X00E KC2023 12 04.19769204 12 14.65 +28 22 11.6          20.0 GVEX024H21
     K23X00E KC2023 12 04.19968604 12 17.98 +28 22 05.4          20.1 GVEX024H21

Observer details:
106 Crni Vrh.  Observer H. Mikuz.  0.60-m f/3.3 reflector + CMO.
130 Lumezzane.  Observers A. Coffano, W. Marinello, M. Micheli, G. Pizzetti,
    A. Soffiantini.  Measurers W. Marinello, G. Pizzetti.  0.40-m f/6
    reflector + CMO.
858 Tebbutt Observatory, Edgewood.  Observer F. B. Zoltowski.  0.16-m f/7
    Refractor + CCD.
G15 Magroforte Observatory, Alessandria.  Observer A. De Pieri.  0.23-m f/6.7
    SC + CMO.
G96 Mt. Lemmon Survey.  Observer H. Groeller.  Measurers E. C. Beshore, D.
    Fay, J. B. Fazekas, D. C. Fuls, A. R. Gibbs, A. D. Grauer, H. Groeller, J.
    K. Hogan, R. A. Kowalski, S. M. Larson, G. J. Leonard, D. Rankin, R. L.
    Seaman, F. C. Shelly, K. W. Wierzchos.  1.5-m reflector + 10K CCD.
H21 Astronomical Research Observatory, Westfield.  Observer R. Holmes.
    Measurers T. Linder, R. Holmes, L. Horn.  0.76-m f/3.0 astrograph + CCD.
I52 Steward Observatory, Mt. Lemmon Station.  Observer R. A. Kowalski.
    Measurers E. C. Beshore, D. Fay, J. B. Fazekas, D. C. Fuls, A. R. Gibbs,
    A. D. Grauer, H. Groeller, J. K. Hogan, R. A. Kowalski, S. M. Larson, G.
    J. Leonard, D. Rankin, R. L. Seaman, F. C. Shelly, K. W. Wierzchos.  1.0-m
    prime focus + CCD.
K74 Muensterschwarzach Observatory, Schwarzach.  Observer C. Gerhard.  0.30-m
    f/3.75 reflector + CMO.

Orbital elements:
2023 XE                                                  Earth MOID = 0.0273 AU
Epoch 2023 Sept. 13.0 TT = JDT 2460200.5                Veres                   
M 339.46513              (2000.0)            P               Q                  
n   0.28735747     Peri.  162.28491     +0.52445788     -0.84998766             
a   2.2743348      Node   256.05731     +0.77485541     +0.50064313             
e   0.5552286      Incl.    2.93225     +0.35290654     +0.16394337             
P   3.43           H   26.41          G   0.15           U   8                  
Residuals in seconds of arc
231203 G96  0.7+  0.3-    231203 106  0.1-  0.3+    231203 G15  0.5+  0.4-
231203 G96  0.3-  0.2-    231203 106  0.2+  0.1+    231204 858  0.1-  0.4-
231203 G96  0.0   0.0     231203 130  0.0   0.0     231204 858  0.2+  0.5-
231203 G96  0.5+  0.1+    231203 K74  0.3+  0.6+    231204 858  0.2-  0.3+
231203 I52  0.1+  0.0     231203 K74  0.4+  0.6+    231204 H21  0.1-  0.2+
231203 I52  0.2-  0.0     231203 K74  0.4+  0.4+    231204 H21  0.1-  0.1+
231203 106  0.1-  0.1-    231203 130  0.3-  0.6+    231204 H21  0.1+  0.0
231203 106  0.1-  0.0     231203 G15  0.2-  0.1-    231204 H21  0.1+  0.0

Ephemeris:
2023 XE                  a,e,i = 2.27, 0.56, 3                   q = 1.0116
Date    TT    R. A. (2000) Decl.     Delta      r    Elong.  Phase     V
2023 11 04    21 58 42.6 +06 10 28   0.1167  1.0413   112.0    62.1    24.0
...
2023 11 19    22 49 36.1 +13 13 07   0.06230 1.0131   111.7    65.0    22.7
...
2023 11 27    00 35 39.7 +23 45 03   0.03855 1.0126   131.0    47.4    21.2
...
2023 12 03    03 35 16.8 +29 10 14   0.03408 1.0188   164.9    14.6    19.9
2023 12 04    04 06 20.6 +28 33 06   0.03517 1.0204   170.3     9.4    19.8
2023 12 05    04 34 44.2 +27 34 56   0.03673 1.0221   174.4     5.4    19.7
...
2023 12 11    06 23 39.7 +20 11 22   0.05328 1.0358   162.5    16.6    21.0
...
2023 12 19    07 17 43.2 +14 22 00   0.08445 1.0618   156.2    21.9    22.2
...
2024 01 03    07 45 25.2 +11 01 57   0.1545  1.1315   162.4    15.2    23.5

M. P. C. Staff               (C) Copyright 2023 MPC           M.P.E.C. 2023-X24





More information about the Iaude mailing list